Location: Kalberh�ni
(46.4610°N, 7.2453°E)
Time: 07:30:18
(UTC+00:00)

deb Kosmos-2227 - Pass Details

Date: 12 August 2022
Orbit: 774 x 865 km, 70.9° (Epoch: 26 September)

Event Time Altitude Azimuth Distance (km) Brightness Sun altitude
Rises 00:46:44 0° 326° (NW) 3,342 ? -26.5°
Reaches altitude 10° 00:49:17 10° 319° (NW) 2,420 ? -26.3°
Enters shadow 00:53:11 34° 280° (W) 1,352 ? -26.1°
